Time,TemperatureF,DewpointF,PressureIn,WindDirection,WindDirectionDegrees,WindSpeedMPH,WindSpeedGustMPH,Humidity,HourlyPrecipIn,Conditions,Clouds,dailyrainin,SoftwareType,DateUTC
2013-07-01 00:00:00,72.7,71.2,29.87,SSE,153,0.0,2.0,95,0.00,,---,0.03,VWS V14.01,2013-07-01 04:00:00,
2013-07-01 00:30:00,72.8,71.6,29.87,SW,236,1.0,1.0,96,0.00,,---,0.03,VWS V14.01,2013-07-01 04:30:00,
2013-07-01 01:00:00,72.8,71.6,29.88,SE,126,0.0,2.0,96,0.00,,---,0.00,VWS V15.00,2013-07-01 05:00:00,
2013-07-01 01:30:00,72.9,71.7,29.88,NW,322,1.0,1.0,96,0.00,,---,0.00,VWS V14.01,2013-07-01 05:30:00,
2013-07-01 02:00:00,72.8,71.6,29.88,SE,126,0.0,2.0,96,0.00,,---,0.00,VWS V14.01,2013-07-01 06:00:00,
2013-07-01 02:30:00,72.7,71.5,29.88,South,190,1.0,1.0,96,0.00,,---,0.00,VWS V14.01,2013-07-01 06:30:00,
2013-07-01 03:00:00,72.5,71.3,29.88,WSW,246,0.0,1.0,96,0.00,,---,0.00,VWS V14.01,2013-07-01 07:00:00,
2013-07-01 03:30:00,72.3,71.1,29.88,SSW,211,0.0,1.0,96,0.00,,---,0.00,VWS V14.01,2013-07-01 07:30:00,
2013-07-01 04:00:00,72.3,71.1,29.87,SSW,205,0.0,1.0,96,0.00,,---,0.00,VWS V14.01,2013-07-01 08:00:00,
2013-07-01 04:30:00,72.4,71.2,29.87,SW,234,1.0,1.0,96,0.00,,---,0.00,VWS V14.01,2013-07-01 08:30:00,
2013-07-01 05:00:00,72.4,71.2,29.87,South,178,0.0,1.0,96,0.00,,---,0.00,VWS V14.01,2013-07-01 09:00:00,
2013-07-01 05:30:00,72.4,71.5,29.87,NNW,338,0.0,2.0,97,0.00,,---,0.00,VWS V14.01,2013-07-01 09:30:00,
2013-07-01 06:00:00,72.3,71.4,29.88,SSE,163,1.0,1.0,97,0.00,,---,0.00,VWS V14.01,2013-07-01 10:00:00,
2013-07-01 06:30:00,72.4,71.5,29.89,SSW,192,0.0,1.0,97,0.00,,---,0.00,VWS V14.01,2013-07-01 10:30:00,
2013-07-01 07:00:00,72.4,71.5,29.90,WNW,302,0.0,1.0,97,0.00,,---,0.00,VWS V14.01,2013-07-01 11:00:00,
2013-07-01 07:30:00,72.5,71.6,29.91,SSW,207,1.0,1.0,97,0.00,,---,0.00,VWS V14.01,2013-07-01 11:30:00,
2013-07-01 08:00:00,72.8,71.9,29.92,South,176,0.0,1.0,97,0.00,,---,0.00,VWS V14.01,2013-07-01 12:00:00,
2013-07-01 08:30:00,73.3,72.4,29.92,ESE,110,1.0,1.0,97,0.00,,---,0.00,VWS V14.01,2013-07-01 12:30:00,
2013-07-01 09:00:00,73.9,73.0,29.93,SW,216,0.0,2.0,97,0.00,,---,0.00,VWS V14.01,2013-07-01 13:00:00,
2013-07-01 09:30:00,74.7,73.5,29.93,ESE,123,1.0,1.0,96,0.00,,---,0.00,VWS V14.01,2013-07-01 13:30:00,
2013-07-01 10:00:00,77.9,75.7,29.93,SSE,165,1.0,1.0,93,0.00,,---,0.00,VWS V14.01,2013-07-01 14:00:00,
2013-07-01 10:30:00,78.4,75.2,29.93,SW,223,0.0,2.0,90,0.00,,---,0.00,VWS V14.01,2013-07-01 14:30:00,
2013-07-01 11:00:00,77.4,74.9,29.93,SSW,203,1.0,2.0,92,0.00,,---,0.00,VWS V14.01,2013-07-01 15:00:00,
2013-07-01 11:30:00,75.9,73.7,29.94,SSW,193,0.0,1.0,93,0.04,,---,0.04,VWS V14.01,2013-07-01 15:30:00,
2013-07-01 12:00:00,73.8,72.3,29.95,SSW,192,0.0,3.0,95,0.08,,---,0.08,VWS V14.01,2013-07-01 16:00:00,
2013-07-01 12:30:00,74.2,72.7,29.95,WSW,241,0.0,1.0,95,0.08,,---,0.08,VWS V14.01,2013-07-01 16:30:00,
2013-07-01 13:00:00,75.6,74.4,29.96,SW,217,0.0,1.0,96,0.05,,---,0.09,VWS V14.01,2013-07-01 17:00:00,
2013-07-01 13:30:00,76.7,74.8,29.96,SSW,192,0.0,1.0,94,0.01,,---,0.09,VWS V14.01,2013-07-01 17:30:00,
2013-07-01 14:00:00,74.1,72.3,29.97,South,173,1.0,1.0,94,0.16,,---,0.25,VWS V15.00,2013-07-01 18:00:00,
2013-07-01 14:30:00,75.4,72.6,29.95,South,173,0.0,1.0,91,0.01,,---,0.09,VWS V14.01,2013-07-01 18:30:00,
2013-07-01 15:00:00,74.1,72.3,29.97,South,173,1.0,1.0,94,0.16,,---,0.25,VWS V14.01,2013-07-01 19:00:00,
2013-07-01 15:30:00,73.2,72.0,29.95,West,264,1.0,1.0,96,0.21,,---,0.30,VWS V14.01,2013-07-01 19:30:00,
2013-07-01 16:00:00,73.8,72.6,29.95,SW,215,0.0,1.0,96,0.22,,---,0.31,VWS V14.01,2013-07-01 20:00:00,
2013-07-01 16:30:00,73.8,72.6,29.96,South,191,1.0,1.0,96,0.06,,---,0.31,VWS V14.01,2013-07-01 20:30:00,
2013-07-01 17:00:00,73.1,71.6,29.96,South,179,1.0,1.0,95,0.01,,---,0.31,VWS V14.01,2013-07-01 21:00:00,
2013-07-01 17:30:00,73.2,72.0,29.96,SSW,203,1.0,1.0,96,0.00,,---,0.31,VWS V14.01,2013-07-01 21:30:00,
2013-07-01 18:00:00,73.0,71.8,29.96,SW,214,0.0,1.0,96,0.00,,---,0.31,VWS V14.01,2013-07-01 22:00:00,
2013-07-01 18:30:00,73.4,72.2,29.96,SE,141,0.0,1.0,96,0.00,,---,0.31,VWS V14.01,2013-07-01 22:30:00,
2013-07-01 19:00:00,73.1,71.6,29.97,SSW,198,1.0,1.0,95,0.00,,---,0.31,VWS V14.01,2013-07-01 23:00:00,
2013-07-01 19:30:00,72.8,71.6,29.97,SE,142,1.0,1.0,96,0.00,,---,0.31,VWS V14.01,2013-07-01 23:30:00,
2013-07-01 20:00:00,72.8,71.6,29.98,SE,135,0.0,2.0,96,0.00,,---,0.31,VWS V14.01,2013-07-02 00:00:00,
2013-07-01 20:30:00,72.9,71.7,29.99,NW,322,1.0,2.0,96,0.00,,---,0.31,VWS V14.01,2013-07-02 00:30:00,
2013-07-01 21:00:00,72.1,71.2,30.00,SSE,164,1.0,1.0,97,0.00,,---,0.31,VWS V15.00,2013-07-02 01:00:00,
2013-07-01 21:30:00,72.3,71.4,29.99,WNW,297,0.0,2.0,97,0.00,,---,0.31,VWS V14.01,2013-07-02 01:30:00,
2013-07-01 22:00:00,72.1,71.2,30.00,SSE,164,1.0,1.0,97,0.00,,---,0.31,VWS V14.01,2013-07-02 02:00:00,
2013-07-01 22:30:00,72.2,71.3,30.00,SSW,193,0.0,1.0,97,0.00,,---,0.31,VWS V14.01,2013-07-02 02:30:00,
2013-07-01 23:00:00,72.5,71.6,30.01,South,177,0.0,2.0,97,0.00,,---,0.31,VWS V14.01,2013-07-02 03:00:00,
2013-07-01 23:30:00,72.2,71.3,30.02,South,175,0.0,1.0,97,0.00,,---,0.31,VWS V14.01,2013-07-02 03:30:00,